{"data":{"norad_id":65958,"epoch":"2026-05-25T01:13:54.092928Z","epoch_age_seconds":70958,"freshness":"FRESH","line1":"1 65958U 25228M   26145.05132052  .00003259  00000+0  45622-3 0  9998","line2":"2 65958  51.9016  10.4354 0000878 105.8019 254.3040 14.79942685 34719","mean_motion":14.79942685,"eccentricity":8.78e-5,"inclination_deg":51.9016,"raan_deg":10.4354,"arg_perigee_deg":105.8019,"mean_anomaly_deg":254.304,"bstar":0.00045622,"rev_number":3471,"period_min":97.301065412543,"perigee_km":628.88978522414,"apogee_km":630.12032716921,"semimajor_km":7007.6420561967,"source":"CELESTRAK","updated_at":"2026-05-25T13:38:05.847715Z"}}